User: anonymous   Login
Location: Unspecified
(0.0000°N, 0.0000°E)
Time: 08:40:07
(UTC+00:00)
Language:

Explorer 22 - Orbit

View from above orbital plane
View from above orbital plane
View from above satellite
View from above satellite

Ground track
Ground track

The orbit data is extracted from the following two-line orbital elements,

1 00899U 64064A   17293.73522018  .00000041  00000-0  29921-4 0  9998
2 00899  79.6919 342.5864 0121115  45.3232 315.7709 13.82034096668582
Epoch (UTC): 20 October 2017 17:38:43
Eccentricity: 0.0121115
inclination: 79.6919°
perigee height: 868 km
apogee height: 1045 km
right ascension of ascending node: 342.5864°
argument of perigee: 45.3232°
revolutions per day: 13.82034096
mean anomaly at epoch: 315.7709°
orbit number at epoch: 66858

The dashed part of the orbit path shows where the satellite is in the earth's shadow,  

DLR